Regional Weather Roundup
Issued by NWS

Home | Current Version | Previous Version | Graphics & Text | Print | Product List | Glossary Off
Versions: 1 2 3 4 5 6 7 8 9 10 11 12 13 14 15 16 17 18 19 20 21 22 23 24 25 26 27 28 29 30 31 32 33 34 35 36 37 38 39 40 41 42 43 44 45 46 47 48 49 50

000
ASUS43 KMKX 011311
RWRWI

WISCONSIN REGIONAL WEATHER ROUNDUP
NATIONAL WEATHER SERVICE MILWAUKEE/SULLIVAN WI
800 AM CDT FRI AUG 01 2014

NOTE: "FAIR" INDICATES FEW OR NO CLOUDS BELOW 12,000 FEET WITH NO
SIGNIFICANT WEATHER AND/OR OBSTRUCTIONS TO VISIBILITY.

WIZ001-002-006>008-014>016-023>028-011400-
NORTHWEST WISCONSIN

CITY           SKY/WX    TMP DP  RH WIND       PRES   REMARKS
SUPERIOR ARPT  SUNNY     58  54  85 NE6       30.07R
ASHLAND        SUNNY     58  56  93 CALM      30.06R
HAYWARD        MOSUNNY   57  56  96 CALM      30.06S
SIREN          SUNNY     61  60  96 CALM      30.05S FOG
RICE LAKE      SUNNY     61  59  95 CALM      30.07R FOG
LADYSMITH      CLOUDY    59  58  97 CALM      30.08R FOG
EAU CLAIRE     SUNNY     65  61  87 SW3       30.05R
MENOMONIE      SUNNY     64  60  87 CALM      30.06R
NEW RICHMOND   SUNNY     64  62  90 SW3       30.07R
OSCEOLA        SUNNY     63  63  99 CALM      30.08R
$$

WIZ003>005-009-010-017-018-011400-
NORTH CENTRAL WISCONSIN

CITY           SKY/WX    TMP DP  RH WIND       PRES   REMARKS
WOODRUFF       SUNNY     59  54  83 CALM      30.07R
RHINELANDER    FOG       59  58  96 CALM      30.08R VSB 3/4
EAGLE RIVER    SUNNY     56  56  98 CALM      30.07R
LAND O LAKES   SUNNY     55  55 100 CALM      30.08R
PHILLIPS       FOG       56  56 100 CALM      30.06S VSB 1/4
TOMAHAWK       SUNNY     56  55  97 CALM      30.08R FOG
MEDFORD        SUNNY     60  60 100 CALM      30.07R FOG
MERRILL        FOG       56  56 100 CALM      30.07S VSB 1
$$

WIZ029-030-035-036-043>047-011400-
CENTRAL WISCONSIN

CITY           SKY/WX    TMP DP  RH WIND       PRES   REMARKS
WAUSAU         MOSUNNY   62  60  93 CALM      30.05S FOG
MOSINEE        PTSUNNY   61  61 100 CALM      30.07R
MARSHFIELD     PTSUNNY   66  60  81 W3        30.06R
STEVENS POINT  SUNNY     60  59  94 CALM      30.07R
WAUPACA        SUNNY     64  61  91 CALM      30.06S
WAUTOMA        SUNNY     66  58  75 CALM      30.07R
WISC RAPIDS    SUNNY     65  60  84 W3        30.08R
CAMP DOUGLAS   MOSUNNY   64  64 100 CALM      30.06S
$$

WIZ011>013-019>022-031-037>040-048>050-011400-
NORTHEAST WISCONSIN

CITY           SKY/WX    TMP DP  RH WIND       PRES   REMARKS
ANTIGO         FOG       55  55 100 CALM      30.08R VSB 1/2
STURGEON BAY   SUNNY     64  61  88 CALM      30.05R
GREEN BAY      SUNNY     64  61  90 W5        30.06R FOG
MANITOWOC      SUNNY     67  62  84 VRB3      30.05R
APPLETON       PTSUNNY   64  61  88 CALM      30.06R
CLINTONVILLE   SUNNY     61  59  94 CALM      30.05S
OSHKOSH        SUNNY     66  60  81 SW3       30.05R
$$

WIZ032>034-041-042-053>061-011400-
SOUTHWEST WISCONSIN

CITY           SKY/WX    TMP DP  RH WIND       PRES   REMARKS
LA CROSSE      MOSUNNY   66  62  87 S5        30.06S
SPARTA         SUNNY     60  58  91 CALM      30.08R
VIROQUA        FAIR      64  58  80 CALM      30.08S
BOSCOBEL       MOSUNNY   61  58  90 CALM      30.08R
PRAIRIE DU CHI FOG       60  59  96 CALM      30.08R VSB 1/4
PLATTEVILLE    FAIR      64  61  91 CALM      30.09S
$$

WIZ056-057-062-063-064-067-068-011400-
SOUTH CENTRAL WISCONSIN

CITY           SKY/WX    TMP DP  RH WIND       PRES   REMARKS
BARABOO/DELLS  SUNNY     65  58  78 SW3       30.07S
LONE ROCK      MOSUNNY   63  59  87 VRB3      30.08S
WATERTOWN      SUNNY     63  61  91 CALM      30.07R
MADISON        SUNNY     68  60  75 CALM      30.07R
MIDDLETON      FAIR      68  61  77 CALM      30.08R
MONROE         SUNNY     66  61  82 SW3       30.08S
JANESVILLE     SUNNY     64  61  88 CALM      30.08R
$$

WIZ051-052-058>065-066-070>072-011400-
SOUTHEAST WISCONSIN

CITY           SKY/WX    TMP DP  RH WIND       PRES   REMARKS
MILWAUKEE      MOSUNNY   69  58  67 W5        30.07R
WAUKESHA       SUNNY     64  59  82 CALM      30.09R
MILWAUKEE/TIMM SUNNY     66  57  72 W3        30.08R
RACINE         SUNNY     68  59  73 W6        30.09R
BURLINGTON     SUNNY     63  60  89 SW3       30.08S
KENOSHA        SUNNY     66  61  84 W6        30.08S
FOND DU LAC    SUNNY     66  59  78 CALM      30.06R
SHEBOYGAN      SUNNY     66  61  84 SW5       30.06R
WEST BEND      SUNNY     66  59  77 CALM      30.07R
JUNEAU         SUNNY     64  58  83 CALM      30.08S
$$

LSZ147-162-011400-
LAKE SUPERIOR

STATION/POSITION TIME  TEMP    WIND        PRES    WAVE
                       AIR SEA DIR/SP/G            HT/PER
                 (UTC) (F)     (DEG/KT/KT) (MB)    (FT/S)
W MID LAKE BUOY  1250   47 43  350/  6/  8 1018.1R   0
PORT WING        1200   55     110/  1/  2 1017.9R
SAXON HARBOR     1200          210/  2/  4 1017.6R
$$

LMZ867-665-643>646-011400-
LAKE MICHIGAN

STATION/POSITION TIME  TEMP    WIND        PRES    WAVE
                       AIR SEA DIR/SP/G            HT/PER
                 (UTC) (F)     (DEG/KT/KT) (MB)    (FT/S)
N MID LAKE BUOY  1250   58 55     CALM     1017.0R   1
NORTHPORT PIER   1200   62      CALM  /  1 1016.9R
SISTER BAY       1110   62        CALM       N/A
ALGOMA LAKESHORE 1221          320/  7/  8   N/A
KEWAUNEE LAKESHO 1200   60     300/  5/  6 1016.1R
SHEBOYGAN LAKESH 1300   71     260/  7/  8 1017.5R
PORT WASHINGTON  1240   70     290/  5/  8 1018.3R
ATWATER BUOY     1300   69     300/  2     1019.2R
MILWAUKEE LAKESH 1200   68     280/  5/  6   N/A
S MID LAKE BUOY  1250   64 62  240/  6/  6 1018.2R   0
KENOSHA   LAKESH 1300   69     260/  8/ 10 1017.9S
$$

TC  - TEMPERATURE IN CELSIUS
VSB - VISIBILITY IN STATUTE MILES
WCI - WIND CHILL INDEX
HX  - HEAT INDEX




USA.gov is the U.S. government's official web portal to all federal, state and local government web resources and services.